Regional Weather Roundup
Issued by NWS

Home | Current Version | Previous Version | Text Only | Print | Product List | Glossary Off
Versions: 1 2 3 4 5 6 7 8 9 10 11 12 13 14 15 16 17 18 19 20 21 22 23 24 25 26 27 28 29 30 31 32 33 34 35 36 37 38 39 40 41 42 43 44 45 46 47 48 49 50

000
ASUS45 KTFX 180019
RWRMT
MONTANA HOURLY WEATHER ROUNDUP
NATIONAL WEATHER SERVICE GREAT FALLS MT
619 PM MDT THU APR 17 2014

NOTE: "FAIR" INDICATES FEW OR NO CLOUDS BELOW 12000 FEET WITH NO
SIGNIFICANT WEATHER AND/OR OBSTRUCTIONS TO VISIBILITY.

* THESE STATIONS ARE NOT UNDER NWS QUALITY CONTROL. THEY DO NOT
   REPORT WEATHER SUCH AS PRECIPITATION OR FOG.

MTZ001>007-043-180100-
WEST OF THE DIVIDE
CITY           SKY/WX    TMP DP  RH WIND       PRES   REMARKS
KALISPELL      LGT RAIN  48  45  89 S9        29.76S
MISSOULA       CLOUDY    54  39  57 NW10      29.77S
BUTTE          CLOUDY    55  27  34 W6        29.79F
MULLAN PASS    LGT SNOW  34  34 100 VRB5      29.77F VSB M1/4 WCI  29
* ESSEX        N/A       43  41  93 VRB2       N/A
* LINCOLN      N/A       49  37  63 W5G16      N/A
* LOOKOUT PASS N/A       40  39  96 SW2        N/A
* PLAINS APT   CLOUDY    54  39  57 CALM      29.80F
* POLSON       N/A       46  44  93 S3         N/A
* RONAN APT    CLOUDY    52  41  66 N/A        N/A
* SEELEY LAKE  N/A       50  35  57 W2         N/A
* THOMP F APT  CLOUDY    52  19  27 S13G22     N/A
$$

MTZ008-052>055-180100-
SOUTHWEST MONTANA
CITY           SKY/WX    TMP DP  RH WIND       PRES   REMARKS
BOZEMAN        CLOUDY    61  25  25 S15       29.79S
DILLON         CLOUDY    63  21  20 S20G26    29.77F
W YELLOWSTONE  N/A       52  24  34 SW6G18     N/A
* THREE FORKS  MOCLDY    64  28  26 S18G28     N/A
* BOULDER HILL N/A       53  29  40 SW11       N/A
* MONIDA PASS  N/A       50  19  29 S14G23     N/A
* RAYNOLDS PAS N/A       46  27  48 SE17G22    N/A
* WHITEHALL    N/A       62  29  29 SW12G30    N/A
* WISE RIVER   N/A       57  28  33 W6G15      N/A
$$

MTZ009>010-012-014-046-048-049-054-180100-
EAST SLOPES AND CENTRAL MONTANA
CITY           SKY/WX    TMP DP  RH WIND       PRES   REMARKS
CUT BANK       MOCLDY    54  36  51 SW12      29.72F
GREAT FALLS    CLOUDY    55  32  42 SE8       29.73F
HELENA         CLOUDY    63  34  34 W8        29.74F
MALMSTROM AFB  CLOUDY    57  30  36 S7        29.71F
* CONRAD       MOCLDY    59  34  39 W7         N/A
* DEARBORN     N/A       60  32  35 S10G16     N/A
* EAST GLACIER N/A       42  35  76 W20G26     N/A
* MONARCH      N/A       50  22  33 S4         N/A
* PENDROY      N/A       54  28  37 W14        N/A
* ROGERS PASS  N/A       45  33  63 SE11G17    N/A
* SAINT MARY   N/A       44  34  68 S6G12      N/A
* SWEET GRASS  N/A       50  37  61 S12G17     N/A
* WHITE SULPH  N/A       53  31  43 SW8G23     N/A
$$

MTZ011-013-016-021-035-040-045-047-050-051-180100-
NORTH CENTRAL MONTANA
CITY           SKY/WX    TMP DP  RH WIND       PRES   REMARKS
HAVRE          CLOUDY    57  32  39 SW12      29.76S
LEWISTOWN      CLOUDY    50  34  54 E8        29.80F
* CHINOOK      PTCLDY    57  34  42 E5        29.77F
* FORT BENTON  CLOUDY    57  32  39 NE8       29.75F
* MALTA APT    MOCLDY    57  28  33 SE5       29.78F
* CHESTER      N/A       52  33  48 E3         N/A
* DENTON       N/A       53  30  41 E11        N/A
* GEYSER       N/A       54  27  35 NE3G8      N/A
* JUDITH GAP   N/A       53  24  32 S22G32     N/A
* LOMA         N/A       58  32  37 SE4        N/A
$$

MTZ017>020-022>027-061-062-180100-
NORTHEAST MONTANA
CITY           SKY/WX    TMP DP  RH WIND       PRES   REMARKS
GLASGOW        MOCLDY    55  30  39 SE14      29.84F
GLENDIVE       MOCLDY    54  32  43 E14       29.92F
JORDAN         MOCLDY    59  28  31 S9        29.81F
SIDNEY         PTCLDY    46  30  54 SE15      30.00F
WOLF POINT     CLOUDY    54  30  40 E20       29.91S
* BEAVER HILL  N/A       49  32  52 E27G32     N/A
* CIRCLE       N/A       55  35  47 SE10       N/A
* LINDSAY DVD  N/A       52  33  48 E14G20     N/A
* NAVAJO       N/A       48  28  46 SE16       N/A
* SACO         N/A       57  31  37 E17G24     N/A
$$

MTZ028>042-056>058-180100-
SOUTHCENTRAL AND SOUTHEAST MONTANA
CITY           SKY/WX    TMP DP  RH WIND       PRES   REMARKS
BAKER          PTCLDY    54  30  40 SE24G30   29.93F
BILLINGS       MOCLDY    63  27  26 CALM      29.81S
LIVINGSTON     CLOUDY    59  25  27 SW25G32   29.79F
MILES CITY     MOCLDY    61  28  29 VRB3      29.85F
* EKALAKA APT  MOCLDY    52  30  43 SE13G20   29.90F
* LAUREL APT   PTCLDY    63  27  26 N/A        N/A
* ROUNDUP APT  CLOUDY    57  28  33 S7         N/A
* HYSHAM       N/A       60  22  23 W3G11      N/A
* REED POINT   N/A       61  28  29 E5         N/A
* ROSCOE HILL  N/A       57   8  14 SW8G14     N/A
$$

REGIONAL REPORTS...DAKOTAS
CITY           SKY/WX    TMP DP  RH WIND       PRES   REMARKS
WILLISTON      MOCLDY    45  28  51 S15       30.04S
DICKINSON      MOCLDY    43  27  53 SE16      30.02F
CROSBY         MOCLDY    41  25  53 SE20      30.07S
WATFORD CITY   CLEAR     41  27  58 SE17G23   30.02F
BISMARCK       CLOUDY    45  19  35 S16       30.15F
GRAND FORKS    MOCLDY    39  12  33 E6        30.29F WCI  35
FARGO          CLEAR     45  12  26 NW7       30.27S
BUFFALO SD     PTCLDY    52  30  43 SE21      29.90F
RAPID CITY     CLEAR     54  36  51 SE21G28   29.97F
$$

REGIONAL REPORTS...WYOMING/IDAHO/WASHINGTON
CITY           SKY/WX    TMP DP  RH WIND       PRES   REMARKS
GILLETTE       MOCLDY    59  21  23 SW8       29.87F
SHERIDAN       PTCLDY    61  28  29 SE9       29.85F
CODY           PTCLDY    59  23  25 W14       29.84S
YELLOWSTONE LA MOCLDY    43  21  42 VRB3      29.99F
SALMON         CLOUDY    61  30  31 N7        29.70F
MULLAN PASS    LGT SNOW  34  34 100 VRB5      29.77S VSB M1/4 WCI  29
SAND POINT     N/A       46  46 100 SE3       29.77F
SPOKANE        LGT RAIN  48  45  89 S10       29.77S
$$

REGIONAL REPORTS...ALBERTA
CITY           SKY/WX    TMP DP  RH WIND       PRES   REMARKS
CALGARY        CLOUDY    41  36  82 E7        29.69S
LETHBRIDGE     CLOUDY    54  39  57 S21       29.67F
MEDICINE HAT   LGT RAIN  52  39  61 SW3       29.74S
EDMONTON       LGT SNOW  30  27  89 E17       29.83S WCI  18
WATERTON GATE  N/A       46  36  68 SW9        N/A
CARDSTON       N/A       52  36  55 S13G18     N/A
$$

REGIONAL REPORTS...SASKATCHEWAN
CITY           SKY/WX    TMP DP  RH WIND       PRES   REMARKS
SWIFT CURRENT  PTCLDY    50  28  43 SE16      29.82S
REGINA         CLOUDY    39  25  57 SE23G35   30.05S WCI  28
VAL MARIE      N/A       54  28  37 SE17G23    N/A
ASSINIBOIA     N/A       46  30  54 SE14G23    N/A
CORONACH       N/A       48  28  46 SE21       N/A

$$




USA.gov is the U.S. government's official web portal to all federal, state and local government web resources and services.